Погода в Шиханах

Россия / Саратовская область     52°06′53″N   47°12′08″E
темп.,
°C
ветер,
м/с
пор.,
м/с
влажн.,
%
обл.,
%
осадки,
мм/ч
давл.,
гПа
погр.,
м
18 мая, вт
вт1801:00+19в33400 0.0 101520
04:00+17всв35451 0.0 101556
07:00+18всв411513 0.0 1014225
10:00+25вюв69370 0.0 1014503
13:00+31юв69240 0.0 10132596
16:00+31юв79254 0.0 10123684
19:00+27в511395 0.0 1012228
22:00+21в46443 0.0 101268
19 мая, ср
ср1901:00+19в48491 0.0 1012114
04:00+18в37455 0.0 1012102
07:00+18всв4115445 0.0 1012238
10:00+25в710402 0.0 1011547
13:00+30вюв8103020 0.0 10112339
16:00+30юв8103031 0.0 10102231
19:00+27вюв5114115 0.0 1010267
22:00+22в7165699 0.0 1011530
20 мая, чт
чт2001:00+22вюв8175369 0.0 1011661
04:00+18вюв61467100 0.2 1012498
07:00+18ююз367999 0.2 1013413
10:00+21ююз2361100 0.5 1013958
13:00+19юз4569100 0.1 1014423
16:00+17юз4780100 0.9 1014305
19:00+19вюв4771100 0.2 1015212
22:00+16ююз3380100 0.4 101476
21 мая, пт
пт2101:00+15юз12833 0.0 101514
04:00+13зюз22854 0.0 101615
07:00+15юз247837 0.0 1017203
10:00+20зюз45595 0.0 1018988
13:00+23зюз4545100 0.0 10181736
16:00+24юз464340 0.0 10192017
19:00+23юз3553100 0.0 1019198
22:00+18ююз225772 0.0 102012
22 мая, сб
сб2201:00+18ююв225677 0.0 102011
04:00+16юв226154 0.0 102111
07:00+19вюв236041 0.0 1022128
10:00+24ююв57455 0.0 1021868
13:00+27ююв57375 0.0 10211729
16:00+28ююв67335 0.0 10191904
19:00+25юв4749100 0.0 1019179
22:00+20вюв3359100 0.0 101924